www.pogodaiklimat.ru

Погода и климат >> Архив погоды >> Мексика >> Temosachic


ПОГОДА в Temosachic

  • Прогноз погоды в Temosachic
  • Монитор погоды в Temosachic
  • Климат города

АРХИВ ПОГОДЫ в Temosachic

Время (UTC), дата Ветер
(напр.,м/с)
 
Видим.   Явления Облачность Т
(С)
Тd
(С)
f
(%)
Тe
(С)
Тes
(С)
Комфортность P
(гПа)
Po
(гПа)
Тmin
(С)
Tmax
(С)
R
(мм)
R24
(мм)
S
(см)
15 8.08 Ю 2 2000 м {морось} 6/3 400 м
[Sc Ac trans Cs]
+18.8 +15.6 82 +20 +24 1014.8 818.9 0.0
18 8.08 Ю 2 2000 м 6/3 800 м
[Sc diur, vesp Cs]
+24.4 +17.7 66 +28 +41 душно 1013.2 818.1 +16.2 +24.4
21 8.08 ЮЗ 3 2000 м 8/8 800 м
[Sc]
+27.6 +17.9 56 +32 +35 очень
душно
1008.5 815.5
00 9.08 ЮЗ 6 2000 м 10/10 600 м
[Sc]
+22.0 +15.9 68 +26 +26 душно 1007.3 815.6 +16.2 +29.0
12 9.08 ЮЗ 1 600 м дождь {морось} 10/10 100 м
[Sc]
+16.0 +14.8 93 +17 +17 1014.0 818.5 7
15 9.08 Ю 2 2000 м {морось} 8/3 300 м
[Sc Ac lent Cc]
+17.4 +15.0 86 +18 +20 1016.0 819.7 0.0
18 9.08 Ю 3 2000 м 6/4 1080 м
[Sc diur, vesp Ac lent]
+24.8 +15.9 58 +28 +35 жарко 1015.1 819.4 +16.0 +24.8
21 9.08 В 3 2000 м 6/6 800 м
[Sc]
+28.8 +17.4 50 +33 +39 очень
душно
1010.3 816.8
00 10.08 штиль 0 2000 м {морось} 10/10 600 м
[Sc]
+18.0 +14.1 78 +18 +18 1012.0 818.5 6
12 10.08 штиль 0 600 м слабая морось 10/10 200 м
[Sc]
+16.4 +14.6 89 +16 +16 1016.2 819.6 7
15 10.08 С 1 2000 м {туман} 9/4 270 м
[Sc Ac lent Cs]
+17.6 +15.2 86 +19 +21 1016.9 820.0
00 11.08 З 2 2000 м дождь {морось} 10/10 600 м
[St]
+19.4 +16.2 82 +22 +22 комфорт 1008.9 816.7 9
12 11.08 штиль 0 2000 м слабая морось 10/10 600 м
[Sc]
+14.4 +14.4 100 +14 +14 1013.9 817.4 4
15 11.08 штиль 0 2000 м 10/10 800 м
[Sc]
+16.0 +15.1 94 +16 +16 1015.4 818.2
12 12.08 штиль 0 500 м слабая переохл. морось (гололёд) {дождь} 10/10 100 м
[Sc]
+16.6 +15.1 91 +16 +16 1013.2 817.2 10
15 12.08 Ю 1 1500 м дождь 10/10 180 м
[Sc]
+16.2 +14.7 91 +17 +17 1014.4 817.9 3
12 13.08 штиль 0 600 м слабая морось {дождь} 10/10 100 м
[Sc]
+16.4 +15.2 93 +16 +16 1012.1 817.3 9
15 13.08 штиль 0 1500 м в посл. час туман {морось} 9/5 240 м
[Sc Ac trans]
+17.0 +14.9 87 +17 +19 1013.0 817.4
21 13.08 В 4 2000 м 8/8 800 м
[Sc]
+23.0 +14.5 59 +27 +29 душно 1010.6 816.1
00 14.08 штиль 0 2000 м 5/5 600 м
[Sc]
+22.8 +12.5 52 +26 +28 жарко 1007.8 814.9 +16.0 +29.4
12 14.08 штиль 0 600 м дымка 5/5 100 м
[Sc]
+14.2 +13.3 94 +14 +14 1012.0 816.2 +14.2 +29.4
15 14.08 С 1 2000 м {туман} 8/4 240 м
[Sc diur, vesp Ac cast]
+16.2 +14.1 87 +17 +19 1013.7 816.7
21 14.08 штиль 0 2000 м 5/5 800 м
[Sc]
+29.4 +20.3 58 +36 +47 очень
душно
1008.0 814.1
00 15.08 ЮЗ 3 2000 м сильный дождь {морось} 10/10 600 м
[Sc]
+17.2 +17.2 100 +17 +17 1008.1 815.5 13

 

Местоположение метеостанции Temosachic (Мексика): широта 28.95 долгота -107.80 высота над уровнем моря 1932 м.

В архиве по умолчанию представлена погода в Temosachic за последнюю неделю. Архивные данные за месяц целиком и за предыдущие месяцы, начиная с января 2011 года, Вы можете получить, выбрав интересующий диапазон дат из раскрывающегося списка и нажав кнопку "Ввод!".


*Определитесь, кто Вы:
робот инопланетянин человек

Внимание! Время в таблицах - всемирное. Для получения местного времени необходимо прибавить поправку, которая в Temosachic равна -7 ч.

Смотрите также архив погоды в соседних городах и на ближайших метеорологических станциях:

Погода в Nueva Casas Grandes (Мексика) (158 км)
Погода в Chihuahua (Мексика) (170 км)
Погода в Chihuahua University (Мексика) (179 км)
Погода в Pilares de Nacoz (Мексика) (241 км)
Погода в Choix (Мексика) (250 км)
Погода в Ciudad Obregon (Мексика) (264 км)
Погода в Empalme (Мексика) (305 км)
Погода в Hermosillo la Magna (Мексика) (307 км)
Погода в Hidalgo del Parral (Мексика) (312 км)
Погода в Hermosillo (Мексика) (316 км)

Пояснения к столбцам:

Ветер - указаны скорость ветра в м/с - средняя за 10 мин, порывы в срок и между сроками (в фигурных скобках) и направление, откуда дует ветер: С - северный, СВ - северо-восточный, В - восточный, ЮВ - юго-восточный, Ю - южный, ЮЗ - юго-западный, З - западный, СЗ - северо-западный.
Видимость - горизонтальная дальность видимости в метрах или километрах. При видимости от 1 до 10 км при отсутствии осадков обычно наблюдается дымка, при ухудшении видимости до 1 км и менее - туман. В сухую погоду видимость может ухудшаться дымом, пылью или мглою.
Явления - указаны атмосферные явления, наблюдавшиеся в срок или в последний час перед сроком; фигурными скобками обозначены явления, наблюдавшиеся между сроками (за 1-3 часа до срока); квадратными скобками обозначены град или гололедные отложения с указанием их диаметра в мм.
Облачность - указаны через наклонную черту общая и нижняя облачность в баллах и высота нижней границы облаков в метрах; квадратными скобками обозначены формы облаков: Ci - перистые, Cs - перисто-слоистые, Cc - перисто-кучевые, Ac - высококучевые, As - высокослоистые, Sc - слоисто-кучевые, Ns - слоисто-дождевые, Cu - кучевые, Cb - кучево-дождевые. Подробнее классификацию облаков см. в Атласе облаков (PDF).
T - Температура воздуха - температура, измеренная на высоте 2 м над землей.
Td - Температура точки росы - температура, при понижении до которой содержащийся в воздухе водяной пар достигнет насыщения.
f - Относительная влажность воздуха - влажноcть воздуха, измеренная на высоте 2 м над землей.
Te - Эффективная температура - температура, которую ощущает одетый по сезону человек в тени. Характеристика душности погоды. При расчете учитывается влияние влажности воздуха и скорости ветра на теплоощущения человека.
Tes - Эффективная температура на солнце - температура, которую ощущает человек, с поправкой на солнечный нагрев. Характеристика знойности погоды. Зависит от высоты солнца над горизонтом, облачности и скорости ветра. Ночью, в пасмурную погоду, а также при ветре 12 м/с и более поправка равна нулю.
P - Атмосферное давление - приведенное к уровню моря атмосферное давление.
Po - Атмосферное давление - измеренное на уровне метеостанции атмосферное давление.
Tmin - Минимальная температура - минимум температуры воздуха на высоте 2 м над землей.
Tmax - Максимальная температура - максимум температуры воздуха на высоте 2 м над землей.
R - Количество осадков - Количество выпавших осадков за период времени, мм. При наведении курсора мыши на число - период времени, за который выпало указанное количество осадков.
R24 - Количество осадков - Количество выпавших осадков за 24 часа, мм.
S - Снежный покров - Высота снежного покрова, см. При наведении курсора мыши на число - состояние снежного покрова и степень покрытия местности в баллах.